User: anonymous   Login
Location: Gazon
(48.1318°N, 1.2708°W)
Time: 02:38:51
(UTC+00:00)
Language:

Resurs 1-3 - Orbit

View from above orbital plane
View from above orbital plane
View from above satellite
View from above satellite

Ground track
Ground track

The orbit data is extracted from the following two-line orbital elements,

1 23342U 94074A   21127.40183870  .00000106  00000-0  21063-4 0  9995
2 23342  97.8814 177.0545 0002255  79.0314 281.1151 14.79413557427480
Epoch (UTC): 07 May 2021 09:38:38
Eccentricity: 0.0002255
inclination: 97.8814°
perigee height: 629 km
apogee height: 633 km
right ascension of ascending node: 177.0545°
argument of perigee: 79.0314°
revolutions per day: 14.79413557
mean anomaly at epoch: 281.1151°
orbit number at epoch: 42748

The dashed part of the orbit path shows where the satellite is in the earth's shadow,  

DLR